TimeAST,TemperatureF,Dew PointF,Humidity,Sea Level PressureIn,VisibilityMPH,Wind Direction,Wind SpeedMPH,Gust SpeedMPH,PrecipitationIn,Events,Conditions,WindDirDegrees,DateUTC
12:00 AM,82.4,75.2,79,30.01,6.2,East,9.2,-,N/A,,Partly Cloudy,80,2013-08-12 04:00:00
1:00 AM,82.4,73.4,74,29.98,6.2,East,10.4,-,N/A,,Partly Cloudy,80,2013-08-12 05:00:00
2:00 AM,82,74,70,29.97,16,East,11.5,,,,,80,2013-08-12 06:00:00
2:00 AM,82.4,73.4,74,29.95,6.2,East,11.5,-,N/A,,Partly Cloudy,80,2013-08-12 06:00:00
3:00 AM,82.4,73.4,74,29.95,6.2,East,9.2,-,N/A,,Partly Cloudy,90,2013-08-12 07:00:00
4:00 AM,82.4,73.4,74,29.95,6.2,East,8.1,-,N/A,,Partly Cloudy,80,2013-08-12 08:00:00
5:00 AM,82,73,68,29.96,16,East,6.9,,,,Scattered Clouds,80,2013-08-12 09:00:00
5:00 AM,82.4,73.4,74,29.95,6.2,East,6.9,-,N/A,,Partly Cloudy,80,2013-08-12 09:00:00
6:00 AM,82.4,73.4,74,29.95,6.2,East,10.4,-,N/A,,Partly Cloudy,80,2013-08-12 10:00:00
7:00 AM,82.4,73.4,74,29.98,6.2,East,12.7,-,N/A,,Partly Cloudy,80,2013-08-12 11:00:00
8:00 AM,84,74,64,29.99,16,ESE,12.7,,,,Scattered Clouds,110,2013-08-12 12:00:00
8:00 AM,84.2,73.4,70,29.98,6.2,ESE,12.7,-,N/A,,Partly Cloudy,110,2013-08-12 12:00:00
9:00 AM,86.0,73.4,66,29.98,6.2,East,12.7,-,N/A,,Partly Cloudy,90,2013-08-12 13:00:00
10:00 AM,86.0,73.4,66,29.98,6.2,East,11.5,-,N/A,,Scattered Clouds,100,2013-08-12 14:00:00
11:00 AM,87,74,58,30.00,16,ESE,8.1,,,,Partly Cloudy,110,2013-08-12 15:00:00
11:00 AM,86.0,75.2,70,29.98,6.2,ESE,8.1,-,N/A,,Scattered Clouds,110,2013-08-12 15:00:00
12:00 PM,87.8,71.6,58,29.98,6.2,East,13.8,-,N/A,,Scattered Clouds,90,2013-08-12 16:00:00
1:00 PM,87.8,73.4,62,29.98,6.2,East,11.5,-,N/A,,Scattered Clouds,100,2013-08-12 17:00:00
2:00 PM,87,72,54,29.96,25,ESE,12.7,,,,Scattered Clouds,120,2013-08-12 18:00:00
2:00 PM,87.8,73.4,62,29.95,6.2,ESE,11.5,-,N/A,,Partly Cloudy,110,2013-08-12 18:00:00
3:00 PM,87.8,73.4,62,29.95,6.2,ESE,10.4,-,N/A,,Partly Cloudy,110,2013-08-12 19:00:00
4:00 PM,86.0,73.4,66,29.95,6.2,East,11.5,-,N/A,,Scattered Clouds,90,2013-08-12 20:00:00
5:00 PM,87,72,52,29.96,25,East,9.2,,,,Partly Cloudy,90,2013-08-12 21:00:00
5:00 PM,86.0,71.6,62,29.95,6.2,East,9.2,-,N/A,,Scattered Clouds,90,2013-08-12 21:00:00
6:00 PM,84.2,71.6,66,29.95,6.2,East,10.4,-,N/A,,Partly Cloudy,80,2013-08-12 22:00:00
7:00 PM,-9999,-9999,N/A,29.98,6.2,East,9.2,-,N/A,,Scattered Clouds,80,2013-08-12 23:00:00
8:00 PM,83,73,65,30.00,19,East,8.1,,,,Scattered Clouds,90,2013-08-13 00:00:00
8:00 PM,82.4,73.4,74,29.98,6.2,East,8.1,-,N/A,,Partly Cloudy,90,2013-08-13 00:00:00
9:00 PM,82.4,71.6,70,30.01,6.2,East,9.2,-,N/A,,Partly Cloudy,80,2013-08-13 01:00:00
10:00 PM,82.4,73.4,74,30.04,6.2,East,8.1,-,N/A,,Partly Cloudy,80,2013-08-13 02:00:00
11:00 PM,83,73,64,30.03,19,East,10.4,,,,Scattered Clouds,80,2013-08-13 03:00:00
11:00 PM,82.4,73.4,74,30.01,6.2,East,10.4,-,N/A,,Partly Cloudy,80,2013-08-13 03:00:00